CYGNUS NG-21

Last updated on Thu Nov 21 2024 00:02:09 GMT+0000 (Coordinated Universal Time)

1 60378U 24139A 24325.62291667 .00026711 00000+0 47816-3 0 9993 2 60378 51.6423 260.3587 0007574 248.5800 115.8879 15.49751346 16683
UTC large
Height (km)
Speed (km/s)
/
Latitude / Longitude
Inclination (degrees)
Orbital Period (minutes)
Azimuth
Elevation
Range (km)
Doppler Factor

Next 0 passes for location: London (51.5072 / 0.1276)

Sorry there are no passes over London.